GW3518 Weather Reports


time (UTC)temp
C
wind
direction
speed
KPH
gust
KPH
rain 1hr
cm
rain 24hr
cm
rain mn
cm
humidity
%
barometer
mb
20260502210749 9 152 0.0 1.6 0.00 0.56 0.56 76 1008.5
20260502210246 9 139 0.0 1.6 0.00 0.56 0.56 84 1008.5
20260502205743 9 217 0.0 0.0 0.00 0.56 0.56 82 1008.6
20260502205234 9 94 0.0 0.0 0.00 0.56 0.56 79 1008.6
20260502204731 8 81 0.0 1.6 0.00 0.56 0.56 73 1008.4
20260502204228 8 198 0.0 0.0 0.00 0.56 0.56 78 1008.7
20260502203721 9 55 0.0 0.0 0.00 0.56 0.56 84 1008.5
20260502203218 10 206 0.0 0.0 0.00 0.56 0.56 77 1008.5
20260502202712 10 148 0.0 0.0 0.00 0.56 0.56 78 1008.5
20260502202211 10 95 1.6 1.6 0.00 0.56 0.56 73 1008.6
20260502201708 10 133 0.0 0.0 0.00 0.56 0.56 76 1008.6
20260502201204 10 31 0.0 0.0 0.00 0.56 0.56 89 1008.6
20260502200700 10 285 0.0 0.0 0.00 0.56 0.56 89 1008.8
20260502200156 10 45 0.0 0.0 0.00 0.56 0.56 91 1008.7
20260502195655 10 26 0.0 0.0 0.00 0.56 0.56 94 1008.8
20260502195150 9 343 0.0 1.6 0.00 0.56 0.56 90 1008.9
20260502194647 9 249 0.0 0.0 0.00 0.56 0.56 90 1009.0
20260502194139 8 242 0.0 0.0 0.00 0.56 0.56 88 1008.8
20260502193635 8 162 0.0 0.0 0.00 0.56 0.56 94 1009.3
20260502193132 8 162 0.0 0.0 0.00 0.56 0.56 94 1009.2
20260502192627 8 161 0.0 0.0 0.00 0.56 0.56 95 1009.2
20260502192125 8 161 0.0 0.0 0.00 0.56 0.56 96 1009.2
20260502191622 8 160 0.0 0.0 0.00 0.56 0.56 91 1009.4
20260502191120 8 160 0.0 0.0 0.00 0.56 0.56 94 1009.2
20260502190617 8 160 0.0 0.0 0.00 0.56 0.56 92 1009.3
20260502190115 8 160 0.0 0.0 0.00 0.56 0.56 94 1009.2
20260502185609 8 161 0.0 0.0 0.00 0.56 0.56 92 1009.6
20260502185106 8 121 0.0 0.0 0.00 0.56 0.56 94 1009.6
20260502184602 8 122 0.0 1.6 0.00 0.56 0.56 92 1009.5
20260502184057 8 133 0.0 1.6 0.00 0.56 0.56 94 1009.5
20260502183554 8 151 0.0 1.6 0.00 0.56 0.56 95 1009.7
20260502183050 7 151 0.0 0.0 0.00 0.56 0.56 96 1009.6
20260502182546 7 150 0.0 0.0 0.00 0.56 0.56 98 1009.8
20260502182042 7 151 0.0 0.0 0.30 0.56 0.56 99 1009.9
20260502181539 7 150 0.0 0.0 0.61 0.56 0.56 99 1009.8
20260502181038 7 151 0.0 0.0 0.61 0.53 0.53 99 1009.8
20260502180534 7 151 0.0 0.0 0.13 0.46 0.46 99 1010.0
20260502170447 7 39 0.0 0.0 0.00 0.20 0.20 97 1009.5
20260502163924 7 39 0.0 0.0 0.00 0.20 0.20 94 1009.5
20260502163421 7 39 0.0 0.0 0.00 0.20 0.20 96 1009.6
20260502162919 7 39 0.0 0.0 0.00 0.20 0.20 95 1009.7
20260502162416 7 39 0.0 0.0 0.00 0.20 0.20 98 1009.7
20260502161913 6 39 0.0 0.0 0.00 0.20 0.20 98 1009.8
20260502161408 7 39 1.6 1.6 0.18 0.20 0.20 98 1009.7
20260502160907 7 39 0.0 0.0 0.30 0.20 0.20 98 1009.9
20260502160405 7 37 0.0 0.0 0.30 0.18 0.18 97 1009.9
20260502151844 7 36 0.0 0.0 0.00 0.13 0.13 95 1009.9
20260502151340 7 36 0.0 0.0 0.00 0.13 0.13 95 1010.3
20260502150838 7 36 0.0 0.0 0.00 0.13 0.13 95 1010.1
20260502150334 7 36 0.0 0.0 0.00 0.13 0.13 95 1010.3
20260502130722 5 69 0.0 0.0 0.00 0.13 0.13 98 1011.0
20260502130220 5 69 0.0 0.0 0.00 0.13 0.13 97 1010.8
20260502123706 5 69 0.0 0.0 0.00 0.13 0.13 98 1010.6
20260502123202 5 69 0.0 0.0 0.00 0.13 0.13 98 1010.9
20260502122659 5 69 0.0 0.0 0.00 0.13 0.13 98 1010.9
20260502122155 5 69 0.0 0.0 0.00 0.13 0.13 99 1010.9
20260502121653 5 69 0.0 0.0 0.00 0.13 0.13 99 1010.7
20260502121145 5 69 0.0 0.0 0.00 0.13 0.13 99 1010.7
20260502120641 5 69 0.0 0.0 0.00 0.13 0.13 99 1010.5
20260502120138 5 69 0.0 0.0 0.00 0.13 0.13 99 1010.7
20260502115636 5 69 0.0 0.0 0.00 0.13 0.13 99 1010.7
20260502115132 5 69 0.0 0.0 0.00 0.13 0.13 99 1010.8
20260502114628 5 69 0.0 0.0 0.00 0.13 0.13 99 1010.8
20260502114126 4 69 0.0 0.0 0.00 0.13 0.13 99 1010.8
20260502113623 4 69 0.0 0.0 0.13 0.13 0.13 99 1010.6
20260502113121 4 69 0.0 0.0 0.13 0.13 0.13 99 1011.0
20260502112619 4 69 0.0 0.0 0.00 0.10 0.10 99 1010.8
20260502112116 4 69 0.0 0.0 0.00 0.10 0.10 99 1011.0
20260502111613 4 69 0.0 0.0 0.00 0.10 0.10 99 1010.7
20260502111110 4 69 0.0 0.0 0.00 0.10 0.10 99 1010.9
20260502110608 4 69 0.0 0.0 0.00 0.10 0.10 99 1010.8
20260502110106 4 69 0.0 0.0 0.00 0.10 0.10 99 1010.8
20260502105603 4 69 0.0 0.0 0.00 0.10 0.10 99 1010.7
20260502105100 4 69 0.0 0.0 0.00 0.10 0.10 99 1010.5
20260502104557 4 69 0.0 0.0 0.00 0.10 0.10 99 1010.4
20260502104054 4 69 0.0 0.0 0.00 0.10 0.10 99 1010.5
20260502103552 4 69 0.0 0.0 0.00 0.10 0.10 99 1010.3
20260502103050 4 69 0.0 0.0 0.00 0.10 0.10 99 1010.2
20260502102546 4 68 0.0 0.0 0.00 0.10 0.10 99 1010.2
20260502102043 4 68 0.0 0.0 0.00 0.10 0.10 99 1010.5
20260502101541 4 68 0.0 0.0 0.00 0.10 0.10 99 1010.4
20260502101039 4 68 0.0 0.0 0.00 0.10 0.10 99 1010.4
20260502100537 4 68 0.0 0.0 0.00 0.10 0.10 99 1010.4
20260502091512 4 68 0.0 0.0 0.00 0.08 0.08 99 1010.4
20260502091009 4 68 0.0 0.0 0.00 0.08 0.08 99 1010.4
20260502090506 4 68 0.0 0.0 0.00 0.08 0.08 99 1010.4
20260502071401 4 69 0.0 0.0 0.18 0.03 0.03 95 1010.6
20260502070859 4 69 0.0 0.0 0.18 0.03 0.03 95 1010.6
20260502070356 4 69 0.0 0.0 0.00 0.00 0.00 95 1010.6
20260502065855 4 69 0.0 0.0 0.00 0.00 0.00 95 1010.7
20260502065353 4 69 0.0 0.0 0.00 0.00 0.00 94 1010.9
20260502064851 4 69 0.0 0.0 0.00 0.00 0.00 94 1010.9
20260502064348 4 69 0.0 0.0 0.00 0.00 0.00 95 1010.8
20260502063845 4 69 0.0 0.0 0.00 0.00 0.00 95 1010.9
20260502063343 4 69 0.0 0.0 0.00 0.00 0.00 94 1010.8
20260502062840 5 69 0.0 0.0 0.00 0.00 0.00 93 1010.8
20260502062337 5 69 0.0 0.0 0.00 0.00 0.00 92 1010.9
20260502061836 5 69 0.0 0.0 0.00 0.00 0.00 92 1010.8
20260502061333 5 69 0.0 0.0 0.00 0.00 0.00 90 1011.0
20260502060828 5 69 0.0 0.0 0.00 0.00 0.00 89 1011.1
20260502060323 5 69 0.0 0.0 0.00 0.00 0.00 88 1011.2
20260502055821 5 69 0.0 0.0 0.00 0.00 0.00 87 1011.0
20260502055319 5 69 0.0 0.0 0.00 0.00 0.00 85 1010.9
20260502054814 5 69 0.0 0.0 0.00 0.00 0.00 84 1010.9
20260502054311 5 69 0.0 0.0 0.00 0.00 0.00 86 1011.0
20260502053808 5 69 0.0 0.0 0.00 0.00 0.00 87 1011.0
20260502053305 5 69 0.0 0.0 0.00 0.00 0.00 88 1010.7
20260502052803 5 69 0.0 0.0 0.00 0.00 0.00 86 1011.2
20260502052301 5 69 0.0 0.0 0.00 0.00 0.00 87 1010.8
20260502051758 5 69 0.0 0.0 0.00 0.00 0.00 86 1010.8
20260502051257 5 69 0.0 0.0 0.00 0.00 0.00 85 1010.7
20260502050753 5 69 0.0 0.0 0.00 0.00 0.00 85 1010.9
20260502050249 5 69 0.0 0.0 0.00 0.00 0.00 86 1010.7
20260502045746 5 69 0.0 0.0 0.00 0.00 0.00 85 1010.7
20260502045243 5 69 0.0 0.0 0.00 0.00 0.00 85 1010.7
20260502044740 5 69 0.0 0.0 0.00 0.00 0.00 84 1010.5
20260502044236 5 69 0.0 0.0 0.00 0.00 0.00 84 1010.6
20260502043733 5 69 0.0 0.0 0.00 0.00 0.00 85 1010.6
20260502043231 5 69 0.0 0.0 0.00 0.00 0.00 83 1010.7
20260502042730 5 69 0.0 0.0 0.00 0.00 0.00 83 1010.6
20260502042228 5 69 0.0 0.0 0.00 0.00 0.00 82 1010.7
20260502041725 5 68 0.0 0.0 0.00 0.00 0.00 81 1010.5
20260502041223 5 68 0.0 0.0 0.00 0.00 0.00 81 1010.6
20260502040719 5 69 0.0 0.0 0.00 0.00 0.00 86 1010.6
20260502040216 4 69 0.0 0.0 0.00 0.00 0.00 85 1010.7
20260502035712 5 69 0.0 0.0 0.00 0.00 0.00 85 1010.6
20260502035209 4 69 0.0 0.0 0.00 0.00 0.00 84 1010.6
20260502034707 4 69 0.0 0.0 0.00 0.00 0.00 83 1010.7
20260502034205 4 69 0.0 0.0 0.00 0.00 0.00 83 1010.7
20260502033703 4 69 0.0 0.0 0.00 0.00 0.00 81 1010.6
20260502033200 4 69 0.0 0.0 0.00 0.00 0.00 81 1010.6
20260502032656 4 69 0.0 0.0 0.00 0.00 0.00 79 1010.6
20260502032152 4 69 0.0 0.0 0.00 0.00 0.00 79 1010.5
20260502031650 5 69 0.0 0.0 0.00 0.00 0.00 78 1010.5
20260502031148 5 69 0.0 0.0 0.00 0.00 0.00 77 1010.4
20260502030647 5 69 0.0 0.0 0.00 0.00 0.00 75 1010.6
20260502030144 5 69 0.0 0.0 0.00 0.00 0.00 75 1010.5
20260502025641 5 69 0.0 0.0 0.00 0.00 0.00 74 1010.4
20260502025139 5 69 0.0 0.0 0.00 0.00 0.00 74 1010.3
20260502024637 5 69 0.0 0.0 0.00 0.00 0.00 70 1010.4
20260502024135 5 69 0.0 0.0 0.00 0.00 0.00 70 1010.5
20260502023633 5 69 0.0 0.0 0.00 0.00 0.00 70 1010.3
20260502023130 5 69 0.0 0.0 0.00 0.00 0.00 70 1010.2
20260502022626 6 69 0.0 0.0 0.00 0.00 0.00 69 1010.3
20260502022123 6 69 0.0 0.0 0.00 0.00 0.00 69 1010.2
20260502021620 6 69 0.0 0.0 0.00 0.00 0.00 71 1010.4
20260502021118 6 69 0.0 0.0 0.00 0.00 0.00 70 1010.4
20260502020615 6 69 0.0 0.0 0.00 0.00 0.00 69 1010.4
20260502020112 6 69 0.0 0.0 0.00 0.00 0.00 70 1010.4
20260502015610 6 69 0.0 0.0 0.00 0.00 0.00 68 1010.3
20260502015106 6 69 0.0 0.0 0.00 0.00 0.00 70 1010.4
20260502014603 6 69 0.0 0.0 0.00 0.00 0.00 72 1010.4
20260502014100 6 69 0.0 0.0 0.00 0.00 0.00 72 1010.4
20260502013555 6 69 0.0 0.0 0.00 0.00 0.00 69 1010.6
20260502013052 6 69 0.0 0.0 0.00 0.00 0.00 65 1010.2
20260502012550 7 69 0.0 0.0 0.00 0.00 0.00 68 1010.2
20260502012047 7 69 0.0 0.0 0.00 0.00 0.00 64 1010.3
20260502011544 7 69 0.0 0.0 0.00 0.00 0.00 66 1010.2
20260502011040 7 69 0.0 0.0 0.00 0.00 0.00 62 1010.4
20260502010538 7 69 0.0 0.0 0.00 0.00 0.00 61 1010.3
20260502010033 7 69 0.0 0.0 0.00 0.00 0.00 57 1009.9
20260502005532 7 69 0.0 0.0 0.00 0.00 0.00 60 1010.0
20260502005029 8 69 0.0 0.0 0.00 0.00 0.00 59 1010.0
20260502004524 8 69 0.0 0.0 0.00 0.00 0.00 63 1010.0
20260502004021 8 69 0.0 0.0 0.00 0.00 0.00 63 1009.8
20260502003520 8 69 0.0 0.0 0.00 0.00 0.00 61 1009.8
20260502003016 8 69 0.0 0.0 0.00 0.00 0.00 62 1009.8
20260502002513 8 69 0.0 0.0 0.00 0.00 0.00 56 1009.6
20260502002010 8 69 0.0 0.0 0.00 0.00 0.00 55 1009.5
20260502001508 8 69 0.0 0.0 0.00 0.00 0.00 56 1009.6
20260502001005 8 69 0.0 0.0 0.00 0.00 0.00 55 1009.6
20260502000503 8 69 0.0 0.0 0.00 0.00 0.00 56 1009.4
20260501235959 8 69 0.0 0.0 0.00 0.00 0.00 53 1009.4
20260501235455 8 69 0.0 0.0 0.00 0.00 0.00 54 1009.2
20260501234950 8 69 0.0 0.0 0.00 0.00 0.00 54 1009.3
20260501234447 9 69 0.0 0.0 0.00 0.00 0.00 54 1009.1
20260501233946 9 69 0.0 0.0 0.00 0.00 0.00 56 1009.1
20260501233443 9 69 0.0 0.0 0.00 0.00 0.00 62 1009.1
20260501232939 9 69 0.0 0.0 0.00 0.00 0.00 54 1008.9
20260501232436 10 69 0.0 0.0 0.00 0.00 0.00 50 1008.9
20260501231933 10 69 0.0 0.0 0.00 0.00 0.00 51 1008.8
20260501231432 10 69 0.0 0.0 0.00 0.00 0.00 54 1008.9
20260501230929 10 69 0.0 0.0 0.00 0.00 0.00 50 1008.7
20260501230428 10 69 0.0 0.0 0.00 0.00 0.00 51 1008.7
20260501225925 10 69 0.0 0.0 0.00 0.00 0.00 50 1008.8
20260501225423 10 69 0.0 0.0 0.00 0.00 0.00 51 1008.7
20260501224918 10 69 0.0 0.0 0.00 0.00 0.00 53 1008.6
20260501224416 10 69 0.0 0.0 0.00 0.00 0.00 52 1008.6
20260501223912 10 69 0.0 0.0 0.00 0.00 0.00 52 1008.6
20260501223409 10 69 0.0 0.0 0.00 0.00 0.00 51 1008.5
20260501222904 11 69 0.0 0.0 0.00 0.00 0.00 47 1008.6
20260501222402 11 69 0.0 0.0 0.00 0.00 0.00 51 1008.5
20260501221858 11 69 0.0 0.0 0.00 0.00 0.00 45 1008.6
20260501221355 11 69 0.0 0.0 0.00 0.00 0.00 45 1008.6
20260501220854 12 69 1.6 1.6 0.00 0.00 0.00 43 1008.5
20260501220350 12 40 0.0 1.6 0.00 0.00 0.00 40 1008.6
20260501215847 12 44 0.0 0.0 0.00 0.00 0.00 44 1008.7
20260501215343 12 54 1.6 1.6 0.00 0.00 0.00 44 1008.6
20260501214839 12 57 0.0 0.0 0.00 0.00 0.00 43 1008.4
20260501214334 12 57 0.0 0.0 0.00 0.00 0.00 46 1008.4
20260501213830 12 57 1.6 1.6 0.00 0.00 0.00 43 1008.4
20260501213326 11 220 0.0 0.0 0.00 0.00 0.00 41 1008.5
20260501212817 11 220 0.0 0.0 0.00 0.00 0.00 43 1008.3
20260501212314 11 192 0.0 1.6 0.00 0.00 0.00 41 1008.5
20260501211811 12 304 0.0 0.0 0.00 0.00 0.00 42 1008.3
20260501211308 12 68 0.0 1.6 0.00 0.00 0.00 38 1008.3